This is the latest recevied weather packets stored in our database for station/object W1BKW. If no packets are shown the sender has not sent any weather packets the latest 10 day(s).
| Time | Temp. | Humidity | Pressure | Rain* | Wind** | Luminosity | Snow |
|---|---|---|---|---|---|---|---|
| 1777673834 | 12.22° C | 43% | 1007.4 hPa | 0 mm | - | 101 W/m² | - |
| 1777672931 | 12.22° C | 38% | 1007.3 hPa | 0 mm | - | 80 W/m² | - |
| 1777672031 | 12.78° C | 40% | 1007.3 hPa | 0 mm | - | 142 W/m² | - |
| 1777671125 | 12.22° C | 45% | 1007.1 hPa | 0 mm | - | 38 W/m² | - |
| 1777670221 | 13.33° C | 38% | 1007 hPa | 0 mm | - | 168 W/m² | - |
| 1777669318 | 12.78° C | 40% | 1006.9 hPa | 0 mm | - | 64 W/m² | - |
| 1777668414 | 12.78° C | 40% | 1006.6 hPa | 0 mm | - | 331 W/m² | - |
| 1777667510 | 12.78° C | 46% | 1006.6 hPa | 0 mm | - | 376 W/m² | - |
| 1777666607 | 12.78° C | 43% | 1006.4 hPa | 0 mm | - | 355 W/m² | - |
| 1777665703 | 12.78° C | 42% | 1006.4 hPa | 0 mm | - | 437 W/m² | - |
| 1777664803 | 12.78° C | 46% | 1006 hPa | 0 mm | - | 83 W/m² | - |
| 1777663901 | 12.78° C | 44% | 1006.4 hPa | 0 mm | - | 358 W/m² | - |
| 1777662998 | 12.78° C | 48% | 1006 hPa | 0 mm | - | 209 W/m² | - |
| 1777662098 | 12.22° C | 45% | 1006.4 hPa | 0 mm | - | 333 W/m² | - |
| 1777661193 | 12.22° C | 50% | 1006.3 hPa | 0 mm | - | 42 W/m² | - |
| 1777660292 | 11.67° C | 47% | 1006.3 hPa | 0 mm | - | 42 W/m² | - |
| 1777659389 | 11.67° C | 50% | 1006.3 hPa | 0 mm | - | 390 W/m² | - |
| 1777658485 | 11.67° C | 53% | 1006.4 hPa | 0 mm | - | 180 W/m² | - |
| 1777657582 | 11.11° C | 55% | 1006.4 hPa | 0 mm | - | 42 W/m² | - |
| 1777656679 | 10.56° C | 54% | 1006.4 hPa | 0 mm | - | 41 W/m² | - |
| 1777655778 | 10.56° C | 57% | 1006.6 hPa | 0 mm | - | 120 W/m² | - |
| 1777654875 | 10.56° C | 58% | 1006.6 hPa | 0 mm | - | 545 W/m² | - |
| 1777653974 | 10° C | 58% | 1006.8 hPa | 0 mm | - | 533 W/m² | - |
| 1777653070 | 10° C | 60% | 1006.8 hPa | 0 mm | - | 435 W/m² | - |
| 1777652166 | 10° C | 59% | 1007 hPa | 0 mm | - | 667 W/m² | - |
* Rain latest hour (hover to see other rain measurements)
** Current wind speed in m/s (hover to see current wind gust speed)